Weather History for Nuiqsut, AK

Change the Weather History Date:

Wednesday, March 26, 2014

  Actual Average (PAKU) Record (PAKU)
Temperature  
Mean Temperature 2 °F -  
Max Temperature 10 °F -6 °F 20 °F (1992)
Min Temperature -5 °F -15 °F -36 °F (2003)
Degree Days  
Heating Degree Days 62    
Moisture  
Dew Point -2 °F    
Average Humidity 83    
Maximum Humidity 88    
Minimum Humidity 73    
Precipitation  
Precipitation 0.00 in - - ()
Sea Level Pressure  
Sea Level Pressure 29.99 in    
Wind  
Wind Speed 9 mph (ENE)    
Max Wind Speed 13 mph    
Max Gust Speed -    
Visibility 10 miles    
Events      
Averages and records for this station are not official NWS values.
T = Trace of Precipitation, MM = Missing Value Source: NWS Daily Summary

Daily Weather History Graph

Daily Weather History Graph

Search for Another Location

Airport:

Trip Planner

Search our weather history database for the weather conditions in past years. The results will help you decide how hot, cold, wet, or windy it might be!

Date:

Astronomy

Mar. 26, 2014 Rise Set
Actual Time 7:33 AM AKDT 8:47 PM AKDT
Civil Twilight 6:29 AM AKDT 9:52 PM AKDT
Nautical Twilight 5:03 AM AKDT 11:20 PM AKDT
Astronomical Twilight 2:42 AM AKDT 1:36 AM AKDT
Moon 7:10 AM AKDT (3/26) 2:26 PM AKDT (3/26)
Length of Visible Light 15h 22m
Length of Day
13h 14m
Waning Crescent, 20% of the Moon is Illuminated
Mar 26
Waning Crescent
Mar 30
New
Apr 7
First Quarter
Apr 14
Full
Apr 21
Last Quarter

Hourly Weather History & Observations

Time (AKDT) Temp. Windchill Dew Point Humidity Pressure Visibility Wind Dir Wind Speed Gust Speed Precip Events Conditions
12:53 AM -2.9 °F -20.8 °F -6.0 °F 87% 30.09 in 10.0 mi NE 11.5 mph - N/A   Clear
1:53 AM -2.9 °F -16.5 °F -7.1 °F 82% 30.07 in 10.0 mi East 6.9 mph - N/A   Clear
2:53 AM -2.9 °F -21.6 °F -6.0 °F 87% 30.06 in 10.0 mi ENE 12.7 mph - N/A   Clear
3:53 AM -2.0 °F -16.6 °F -5.1 °F 87% 30.05 in 10.0 mi ENE 8.1 mph - N/A   Clear
4:53 AM -2.0 °F -13.9 °F -6.0 °F 83% 30.04 in 10.0 mi NE 5.8 mph - N/A   Clear
5:53 AM -0.9 °F -15.3 °F -5.1 °F 83% 30.03 in 10.0 mi NE 8.1 mph - N/A   Clear
6:53 AM -5.1 °F -19.1 °F -9.0 °F 83% 30.02 in 10.0 mi ENE 6.9 mph - N/A   Clear
7:53 AM -4.0 °F -16.3 °F -8.0 °F 83% 30.01 in 10.0 mi East 5.8 mph - N/A   Clear
8:53 AM -0.9 °F -15.3 °F -7.1 °F 75% 30.01 in 10.0 mi East 8.1 mph - N/A   Clear
9:53 AM -0.0 °F -7.9 °F -5.1 °F 79% 30.00 in 10.0 mi East 3.5 mph - N/A   Clear
10:53 AM 3.0 °F -9.3 °F -4.0 °F 73% 30.00 in 10.0 mi NE 6.9 mph - 0.00 in   Clear
11:53 AM 3.9 °F -3.4 °F -0.9 °F 80% 29.99 in 10.0 mi NE 3.5 mph - 0.00 in   Clear
12:53 PM 7.0 °F -5.7 °F 1.9 °F 80% 29.99 in 10.0 mi ENE 8.1 mph - 0.00 in   Clear
1:53 PM 8.1 °F -5.3 °F 3.9 °F 83% 29.99 in 10.0 mi ENE 9.2 mph - 0.00 in   Clear
2:53 PM 10.9 °F -0.8 °F 6.1 °F 81% 29.97 in 10.0 mi NE 8.1 mph - 0.00 in   Clear
3:53 PM 9.0 °F -5.1 °F 5.0 °F 84% 29.97 in 10.0 mi East 10.4 mph - 0.00 in   Clear
4:53 PM 9.0 °F -6.6 °F 5.0 °F 84% 29.97 in 10.0 mi ENE 12.7 mph - 0.00 in   Clear
5:53 PM 9.0 °F -4.2 °F 3.9 °F 80% 29.96 in 10.0 mi ENE 9.2 mph - 0.00 in   Clear
6:53 PM 8.1 °F -6.2 °F 3.0 °F 80% 29.94 in 10.0 mi ENE 10.4 mph - 0.00 in   Clear
7:53 PM 3.9 °F -12.2 °F 1.0 °F 88% 29.94 in 10.0 mi ENE 11.5 mph - N/A   Clear
8:53 PM 3.9 °F -10.4 °F 1.0 °F 88% 29.94 in 10.0 mi East 9.2 mph - N/A   Clear
9:53 PM 3.0 °F -13.3 °F -0.0 °F 87% 29.94 in 10.0 mi ENE 11.5 mph - N/A   Clear
10:53 PM 3.0 °F -11.5 °F -0.9 °F 84% 29.94 in 10.0 mi East 9.2 mph - N/A   Clear
11:53 PM 1.0 °F -10.3 °F -2.0 °F 87% 29.94 in 10.0 mi East 5.8 mph - N/A   Clear